sat.trackr.live / text

‹ back to catalog

STARLINK-32142

NORAD 60291 · 2024-132P

PAYLOAD ACTIVE UNKNOWN

§ Identity

Operator
Country
US
Launch date
2024-07-28
Launch site
AFETR
Launch vehicle
Mass (kg)
RCS (m²)

Purposes: comms

External: N2YO · Heavens-Above · Gunter

§ Orbital elements

Epoch: 2026-05-25T04:04:05.780640Z

Period
94.11 min
Inclination
53.1610°
Eccentricity
0.0001216
Mean motion
15.30204507 rev/d
Perigee alt
474.4 km
Apogee alt
476.0 km
Semi-major
6,853.3 km
B*
4.7381e-5
RAAN
56.9166°
Arg perigee
86.1878°
Mean anomaly
273.9261°
Rev number
10,327

§ Raw data

STARLINK-321421 60291U 24132P   26145.16951135  .00001045  00000+0  47381-4 0  99952 60291  53.1610  56.9166 0001216  86.1878 273.9261 15.30204507103277

JSON: /api/v1/satellites/60291 · /tle

For live sub-satellite position, see the globe view (requires WebGL).

§ Visibility from observer

Set your observer location to see the next 7 days of passes ≥ 10°. The values pass through the URL so the page stays shareable.

No JS? Fill the form by hand. The geolocation button needs JavaScript.